Showing default

CARTOSAT 2D, 41948

Orbit data source: Space-Track

CARTOSAT 2D, 41948 is a payload satellite owned by ISRO (IN) in SSO that was launched on Wed, 15 Feb 2017 UTC via a PSLV-XL launch vehicle from the Sirharikota (SRI). Payload-class satellites include a variety of spacecraft equipped with specific instruments for various scientific and technological missions. These include communications satellites like Starlink; space stations such as the ISS; scientific satellites like the Hubble; Earth observation satellites from companies like Planet Labs, Umbra, and HawkEye 360; GPS; miniature CubeSats for education and research; and military/defense satellites.

Loading next visibility...
Identifier
41948, 2017-008A
Orbit
SSO
Country
Flag of ININ / IND
Related business
Manufacturer
ISRO
Mission
Operational Defense Imaging
Bus & Motor
IRS-2, AOCS
Mass
714 kg wet, 639 kg dry
Launch date (UTC)
2017-02-15 (9 years ago)
Launch vehicle
PSLV-XL
Launch site
Sirharikota (SRI)
Object type
Payload
Rocket body
Debris
Shape & HBR
Hex Cyl + 2 Pan, 4.0 m
Radar Cross Section
9.780 m², Large (>1 m²)

Expand to show TLE details & history
Last TLE update: 23 hours ago

TLE from 23 hours ago
0 CARTOSAT 2D
1 41948U 17008A   26144.18451331  .00003321  00000-0  16062-3 0  9992
2 41948  97.4114 203.9358 0003668 336.3572  23.7494 15.19284269513933
Epoch: 2026-05-24T04:25Z
TLE epoch observation values (Epoch: 2026-05-24T04:25:41.949Z)
Latitude
-0.00001°
Longitude
-104.27928°
Altitude
508.779 km
Speed
7.611 km/s
True Right ascension
13h 35m 44s
True Declination
0° 00' 00"
Sunlit
Object was in full shadow at epoch
Visualization orbit readout
Latitude
Unknown
Longitude
Unknown
Altitude
Unknown
Speed
Unknown
Apparent Right ascension
Unknown
Apparent Declination
Unknown
Sunlit
N/A
Visualization observer readout
Local Sidereal Time
12:38:49
Azimuth
Unknown
Elevation
Unknown
Doppler factor
Unknown
Orbital elements
Apogee altitude
507.494 km
Perigee altitude
502.445 km
Semi-major axis
6,883.106 km
Eccentricity
0.00037
Inclination
97.4114°
RAAN
203.9358°
Arg. of periapsis
336.3572°
True anomaly
23.76634°
Mean anomaly
23.7494°
Eccentric anomaly
23.75787°
Mean motion
3.80072 °/min
Orbital period
94.72 mins
BSTAR
0.00016062
Loading maneuver chart data...
Computing Atmospheric mass density...

Documentation

Showing up to 5 results
|